Location: Elmsmere
(40.9284°N, 73.8207°W)
Time: 09:15:14
(UTC+00:00)

GPS 2-04 Rocket1 - Pass Details

Date: 29 October 2020
Orbit: 418 x 545 km, 35.6° (Epoch: 23 November)

Event Time Altitude Azimuth Distance (km) Brightness Sun altitude
Rises 23:33:21 0° 245° (WSW) 2,619 7.5 -19.2°
Reaches altitude 10° 23:35:40 10° 236° (SW) 1,753 6.2 -19.7°
Maximum altitude 23:39:22 34° 170° (S) 880 3.7 -20.4°
Enters shadow 23:39:45 34° 158° (SSE) 896 3.7 -20.4°
